Time,TemperatureF,DewpointF,PressureIn,WindDirection,WindDirectionDegrees,WindSpeedMPH,WindSpeedGustMPH,Humidity,HourlyPrecipIn,Conditions,Clouds,dailyrainin,SoftwareType,DateUTC
2013-03-07 00:02:00,33.0,31.0,30.28,NW,325,3.0,7.0,92,0.00,,,0.26,,2013-03-07 05:02:00,
2013-03-07 00:12:00,33.0,31.0,30.28,NW,325,3.0,7.0,92,0.00,,,0.26,,2013-03-07 05:12:00,
2013-03-07 00:22:00,33.0,31.0,30.28,NNW,346,2.0,5.0,93,0.00,,,0.26,,2013-03-07 05:22:00,
2013-03-07 00:32:00,32.0,30.0,30.29,NNW,328,4.0,6.0,93,0.00,,,0.26,,2013-03-07 05:32:00,
2013-03-07 00:42:00,32.0,30.0,30.29,NNW,328,4.0,6.0,93,0.00,,,0.26,,2013-03-07 05:42:00,
2013-03-07 00:52:00,33.0,31.0,30.29,NNW,330,2.0,6.0,93,0.00,,,0.26,,2013-03-07 05:52:00,
2013-03-07 01:01:00,33.0,31.0,30.29,NW,316,2.0,7.0,93,0.00,,,0.26,,2013-03-07 06:01:00,
2013-03-07 01:11:00,33.0,31.0,30.29,NW,316,2.0,7.0,93,0.00,,,0.26,,2013-03-07 06:11:00,
2013-03-07 01:21:00,33.0,31.0,30.29,NNW,338,2.0,8.0,93,0.00,,,0.26,,2013-03-07 06:21:00,
2013-03-07 01:32:00,33.0,31.0,30.29,WNW,292,1.0,6.0,93,0.00,,,0.26,,2013-03-07 06:32:00,
2013-03-07 01:42:00,33.0,31.0,30.29,WNW,292,1.0,6.0,93,0.00,,,0.26,,2013-03-07 06:42:00,
2013-03-07 01:52:00,33.0,31.0,30.29,NW,325,1.0,4.0,93,0.00,,,0.26,,2013-03-07 06:52:00,
2013-03-07 02:01:00,33.0,31.0,30.29,NNW,342,1.0,3.0,93,0.00,,,0.26,,2013-03-07 07:01:00,
2013-03-07 02:11:00,33.0,31.0,30.29,NNW,342,1.0,3.0,93,0.00,,,0.26,,2013-03-07 07:11:00,
2013-03-07 02:21:00,33.0,31.0,30.29,NW,309,2.0,4.0,93,0.00,,,0.26,,2013-03-07 07:21:00,
2013-03-07 02:32:00,33.0,31.0,30.29,NNW,338,3.0,7.0,92,0.00,,,0.26,,2013-03-07 07:32:00,
2013-03-07 02:42:00,33.0,31.0,30.29,NNW,338,3.0,7.0,92,0.00,,,0.26,,2013-03-07 07:42:00,
2013-03-07 02:53:00,33.0,31.0,30.30,NW,323,2.0,6.0,91,0.00,,,0.26,,2013-03-07 07:53:00,
2013-03-07 03:02:00,33.0,30.0,30.30,NW,317,1.0,5.0,90,0.00,,,0.26,,2013-03-07 08:02:00,
2013-03-07 03:12:00,33.0,30.0,30.30,NW,317,1.0,5.0,90,0.00,,,0.26,,2013-03-07 08:12:00,
2013-03-07 03:22:00,33.0,30.0,30.30,NNW,329,1.0,4.0,90,0.00,,,0.26,,2013-03-07 08:22:00,
2013-03-07 03:33:00,33.0,30.0,30.30,NW,317,1.0,7.0,90,0.00,,,0.26,,2013-03-07 08:33:00,
2013-03-07 03:43:00,33.0,30.0,30.30,NW,317,1.0,7.0,90,0.00,,,0.26,,2013-03-07 08:43:00,
2013-03-07 03:54:00,33.0,30.0,30.30,NNW,331,1.0,5.0,90,0.00,,,0.26,,2013-03-07 08:54:00,
2013-03-07 04:03:00,33.0,30.0,30.31,NW,321,2.0,7.0,89,0.00,,,0.26,,2013-03-07 09:03:00,
2013-03-07 04:13:00,33.0,30.0,30.31,NW,321,2.0,7.0,89,0.00,,,0.26,,2013-03-07 09:13:00,
2013-03-07 04:23:00,33.0,30.0,30.31,NW,317,1.0,5.0,90,0.00,,,0.26,,2013-03-07 09:23:00,
2013-03-07 04:32:00,33.0,30.0,30.32,NW,325,0.0,4.0,90,0.00,,,0.26,,2013-03-07 09:32:00,
2013-03-07 04:42:00,33.0,30.0,30.32,NW,325,0.0,4.0,90,0.00,,,0.26,,2013-03-07 09:42:00,
2013-03-07 04:53:00,33.0,31.0,30.32,NNW,336,0.0,3.0,91,0.00,,,0.26,,2013-03-07 09:53:00,
2013-03-07 05:03:00,33.0,31.0,30.32,NNW,336,0.0,2.0,91,0.00,,,0.26,,2013-03-07 10:03:00,
2013-03-07 05:13:00,33.0,31.0,30.32,NNW,336,0.0,2.0,91,0.00,,,0.26,,2013-03-07 10:13:00,
2013-03-07 05:23:00,33.0,31.0,30.33,NNW,336,0.0,3.0,91,0.00,,,0.26,,2013-03-07 10:23:00,
2013-03-07 05:33:00,33.0,31.0,30.33,NW,319,0.0,5.0,92,0.00,,,0.26,,2013-03-07 10:33:00,
2013-03-07 05:42:00,33.0,31.0,30.33,NW,319,0.0,5.0,92,0.00,,,0.26,,2013-03-07 10:42:00,
2013-03-07 05:53:00,33.0,31.0,30.33,NW,317,0.0,2.0,92,0.00,,,0.26,,2013-03-07 10:53:00,
2013-03-07 06:12:00,33.0,31.0,30.34,NW,326,1.0,5.0,91,0.00,,,0.26,,2013-03-07 11:12:00,
2013-03-07 06:23:00,32.0,30.0,30.34,NW,325,1.0,7.0,91,0.00,,,0.26,,2013-03-07 11:23:00,
2013-03-07 06:33:00,32.0,30.0,30.34,NNW,327,0.0,3.0,92,0.00,,,0.26,,2013-03-07 11:33:00,
2013-03-07 06:43:00,32.0,30.0,30.34,NNW,327,0.0,3.0,92,0.00,,,0.26,,2013-03-07 11:43:00,
2013-03-07 06:54:00,32.0,30.0,30.34,NNW,328,0.0,3.0,93,0.00,,,0.26,,2013-03-07 11:54:00,
2013-03-07 07:02:00,32.0,30.0,30.34,NNW,328,0.0,0.0,93,0.00,,,0.26,,2013-03-07 12:02:00,
2013-03-07 07:12:00,32.0,30.0,30.34,NNW,328,0.0,0.0,93,0.00,,,0.26,,2013-03-07 12:12:00,
2013-03-07 07:23:00,32.0,30.0,30.35,NNW,327,0.0,1.0,94,0.00,,,0.26,,2013-03-07 12:23:00,
2013-03-07 07:33:00,32.0,30.0,30.35,NNW,329,0.0,2.0,94,0.00,,,0.26,,2013-03-07 12:33:00,
2013-03-07 07:42:00,32.0,30.0,30.35,NNW,329,0.0,2.0,94,0.00,,,0.26,,2013-03-07 12:42:00,
2013-03-07 07:53:00,32.0,30.0,30.36,NNW,329,0.0,3.0,94,0.00,,,0.26,,2013-03-07 12:53:00,
2013-03-07 08:02:00,32.0,30.0,30.36,NNW,329,0.0,3.0,94,0.00,,,0.26,,2013-03-07 13:02:00,
2013-03-07 08:12:00,32.0,30.0,30.36,NNW,329,0.0,3.0,94,0.00,,,0.26,,2013-03-07 13:12:00,
2013-03-07 08:22:00,32.0,30.0,30.37,NNW,329,0.0,3.0,94,0.00,,,0.26,,2013-03-07 13:22:00,
2013-03-07 08:32:00,32.0,30.0,30.37,NW,322,1.0,3.0,92,0.00,,,0.26,,2013-03-07 13:32:00,
2013-03-07 08:42:00,32.0,30.0,30.37,NW,322,1.0,3.0,92,0.00,,,0.26,,2013-03-07 13:42:00,
2013-03-07 08:53:00,32.0,30.0,30.38,NNW,333,1.0,4.0,92,0.00,,,0.26,,2013-03-07 13:53:00,
2013-03-07 09:02:00,33.0,31.0,30.38,NNW,336,1.0,6.0,91,0.00,,,0.26,,2013-03-07 14:02:00,
2013-03-07 09:12:00,33.0,31.0,30.38,NNW,336,1.0,6.0,91,0.00,,,0.26,,2013-03-07 14:12:00,
2013-03-07 09:23:00,33.0,30.0,30.39,NNW,345,0.0,3.0,90,0.00,,,0.26,,2013-03-07 14:23:00,
2013-03-07 09:32:00,34.0,31.0,30.39,NW,318,0.0,3.0,90,0.01,,,0.27,,2013-03-07 14:32:00,
2013-03-07 09:42:00,34.0,31.0,30.39,NW,318,0.0,3.0,90,0.01,,,0.27,,2013-03-07 14:42:00,
2013-03-07 09:54:00,34.0,31.0,30.39,NW,309,1.0,3.0,88,0.02,,,0.28,,2013-03-07 14:54:00,
2013-03-07 10:02:00,34.0,31.0,30.40,WNW,292,1.0,5.0,88,0.02,,,0.28,,2013-03-07 15:02:00,
2013-03-07 10:12:00,34.0,31.0,30.40,WNW,292,1.0,5.0,88,0.02,,,0.28,,2013-03-07 15:12:00,
2013-03-07 10:23:00,34.0,31.0,30.40,WNW,300,2.0,5.0,87,0.02,,,0.28,,2013-03-07 15:23:00,
2013-03-07 10:32:00,34.0,30.0,30.40,NW,323,1.0,6.0,86,0.02,,,0.28,,2013-03-07 15:32:00,
2013-03-07 10:42:00,34.0,30.0,30.40,NW,323,1.0,6.0,86,0.02,,,0.28,,2013-03-07 15:42:00,
2013-03-07 10:53:00,35.0,31.0,30.40,WNW,300,2.0,5.0,85,0.02,,,0.30,,2013-03-07 15:53:00,
2013-03-07 11:02:00,35.0,31.0,30.40,NNW,334,2.0,5.0,85,0.02,,,0.30,,2013-03-07 16:02:00,
2013-03-07 11:12:00,35.0,31.0,30.40,NNW,334,2.0,5.0,85,0.02,,,0.30,,2013-03-07 16:12:00,
2013-03-07 11:23:00,35.0,31.0,30.40,NW,322,3.0,7.0,85,0.01,,,0.30,,2013-03-07 16:23:00,
2013-03-07 11:32:00,35.0,31.0,30.40,NNW,341,3.0,8.0,84,0.02,,,0.31,,2013-03-07 16:32:00,
2013-03-07 11:53:00,36.0,30.0,30.39,NNW,345,4.0,7.0,80,0.02,,,0.32,,2013-03-07 16:53:00,
2013-03-07 12:02:00,36.0,29.0,30.40,NNW,329,4.0,9.0,77,0.02,,,0.32,,2013-03-07 17:02:00,
2013-03-07 12:12:00,36.0,29.0,30.40,NNW,329,4.0,9.0,77,0.02,,,0.32,,2013-03-07 17:12:00,
2013-03-07 12:22:00,36.0,29.0,30.40,NNW,333,4.0,7.0,76,0.02,,,0.30,,2013-03-07 17:22:00,
2013-03-07 12:32:00,36.0,29.0,30.40,NW,305,1.0,5.0,75,0.01,,,0.30,,2013-03-07 17:32:00,
2013-03-07 12:43:00,36.0,29.0,30.40,NW,305,1.0,5.0,75,0.01,,,0.30,,2013-03-07 17:43:00,
2013-03-07 12:54:00,38.0,28.0,30.39,NNW,344,2.0,5.0,67,0.01,,,0.31,,2013-03-07 17:54:00,
2013-03-07 13:03:00,37.0,28.0,30.39,NW,304,2.0,5.0,70,0.01,,,0.31,,2013-03-07 18:03:00,
2013-03-07 13:12:00,37.0,28.0,30.39,NW,304,2.0,5.0,70,0.01,,,0.31,,2013-03-07 18:12:00,
2013-03-07 13:22:00,37.0,27.0,30.39,NW,323,2.0,6.0,67,0.01,,,0.26,,2013-03-07 18:22:00,
2013-03-07 13:32:00,37.0,27.0,30.39,WNW,283,1.0,5.0,66,0.01,,,0.26,,2013-03-07 18:32:00,
2013-03-07 13:42:00,37.0,27.0,30.39,WNW,283,1.0,5.0,66,0.01,,,0.26,,2013-03-07 18:42:00,
2013-03-07 13:53:00,37.0,27.0,30.39,NNW,336,1.0,6.0,67,0.00,,,0.26,,2013-03-07 18:53:00,
2013-03-07 14:03:00,37.0,27.0,30.39,West,276,1.0,6.0,67,0.00,,,0.26,,2013-03-07 19:03:00,
2013-03-07 14:12:00,37.0,27.0,30.39,West,276,1.0,6.0,67,0.00,,,0.26,,2013-03-07 19:12:00,
2013-03-07 14:23:00,37.0,28.0,30.38,NNW,340,3.0,7.0,70,0.00,,,0.21,,2013-03-07 19:23:00,
2013-03-07 14:34:00,37.0,28.0,30.39,NNW,328,2.0,8.0,70,0.00,,,0.21,,2013-03-07 19:34:00,
2013-03-07 14:43:00,37.0,28.0,30.39,NNW,328,2.0,8.0,70,0.00,,,0.21,,2013-03-07 19:43:00,
2013-03-07 14:53:00,36.0,27.0,30.38,WNW,301,2.0,6.0,69,0.00,,,0.21,,2013-03-07 19:53:00,
2013-03-07 15:02:00,36.0,26.0,30.39,NNW,335,3.0,7.0,68,0.00,,,0.21,,2013-03-07 20:02:00,
2013-03-07 15:13:00,36.0,26.0,30.39,NNW,335,3.0,7.0,68,0.00,,,0.21,,2013-03-07 20:13:00,
2013-03-07 15:22:00,37.0,27.0,30.39,NW,324,3.0,7.0,67,0.00,,,0.14,,2013-03-07 20:22:00,
2013-03-07 15:33:00,37.0,27.0,30.39,NW,325,3.0,8.0,67,0.00,,,0.14,,2013-03-07 20:33:00,
2013-03-07 15:42:00,37.0,27.0,30.39,NW,325,3.0,8.0,67,0.00,,,0.14,,2013-03-07 20:42:00,
2013-03-07 15:54:00,36.0,26.0,30.39,NNW,342,2.0,6.0,67,0.00,,,0.14,,2013-03-07 20:54:00,
2013-03-07 16:02:00,37.0,26.0,30.39,WNW,296,2.0,6.0,64,0.00,,,0.14,,2013-03-07 21:02:00,
2013-03-07 16:12:00,37.0,26.0,30.39,WNW,296,2.0,6.0,64,0.00,,,0.14,,2013-03-07 21:12:00,
2013-03-07 16:22:00,38.0,27.0,30.39,NW,317,2.0,6.0,64,0.00,,,0.10,,2013-03-07 21:22:00,
2013-03-07 16:32:00,37.0,27.0,30.39,WNW,295,1.0,5.0,66,0.00,,,0.10,,2013-03-07 21:32:00,
2013-03-07 16:42:00,37.0,27.0,30.39,WNW,295,1.0,5.0,66,0.00,,,0.10,,2013-03-07 21:42:00,
2013-03-07 16:53:00,37.0,27.0,30.39,NNW,337,1.0,4.0,66,0.00,,,0.10,,2013-03-07 21:53:00,
2013-03-07 17:02:00,37.0,26.0,30.40,NW,311,1.0,4.0,64,0.00,,,0.10,,2013-03-07 22:02:00,
2013-03-07 17:12:00,37.0,26.0,30.40,NW,311,1.0,4.0,64,0.00,,,0.10,,2013-03-07 22:12:00,
2013-03-07 17:22:00,36.0,26.0,30.40,North,355,3.0,8.0,66,0.00,,,0.08,,2013-03-07 22:22:00,
2013-03-07 17:32:00,35.0,27.0,30.40,North,350,2.0,6.0,71,0.00,,,0.08,,2013-03-07 22:32:00,
2013-03-07 17:42:00,35.0,27.0,30.40,North,350,2.0,6.0,71,0.00,,,0.08,,2013-03-07 22:42:00,
2013-03-07 17:54:00,35.0,26.0,30.40,NNW,334,3.0,5.0,69,0.00,,,0.08,,2013-03-07 22:54:00,
2013-03-07 18:02:00,35.0,26.0,30.41,NNW,344,2.0,4.0,69,0.00,,,0.08,,2013-03-07 23:02:00,
2013-03-07 18:12:00,35.0,26.0,30.41,NNW,344,2.0,4.0,69,0.00,,,0.08,,2013-03-07 23:12:00,
2013-03-07 18:22:00,34.0,26.0,30.42,NNW,331,0.0,3.0,71,0.00,,,0.07,,2013-03-07 23:22:00,
2013-03-07 18:33:00,34.0,26.0,30.42,NW,309,1.0,3.0,71,0.00,,,0.07,,2013-03-07 23:33:00,
2013-03-07 18:43:00,34.0,26.0,30.42,NW,309,1.0,3.0,71,0.00,,,0.07,,2013-03-07 23:43:00,
2013-03-07 18:54:00,33.0,24.0,30.42,NNW,332,1.0,3.0,70,0.00,,,0.07,,2013-03-07 23:54:00,
2013-03-07 19:03:00,33.0,25.0,30.42,NNW,334,0.0,4.0,71,0.00,,,0.07,,2013-03-08 00:03:00,
2013-03-07 19:12:00,33.0,25.0,30.42,NNW,334,0.0,4.0,71,0.00,,,0.07,,2013-03-08 00:12:00,
2013-03-07 19:23:00,32.0,24.0,30.42,NW,305,0.0,2.0,73,0.00,,,0.07,,2013-03-08 00:23:00,
2013-03-07 19:43:00,32.0,25.0,30.42,NW,305,0.0,0.0,76,0.00,,,0.07,,2013-03-08 00:43:00,
2013-03-07 20:02:00,30.0,24.0,30.42,NW,305,0.0,0.0,78,0.00,,,0.07,,2013-03-08 01:02:00,
2013-03-07 20:11:00,30.0,24.0,30.42,NW,305,0.0,0.0,78,0.00,,,0.07,,2013-03-08 01:11:00,
2013-03-07 20:21:00,29.0,24.0,30.42,NW,305,0.0,0.0,82,0.00,,,0.07,,2013-03-08 01:21:00,
2013-03-07 20:32:00,28.0,24.0,30.43,NW,305,0.0,0.0,84,0.00,,,0.07,,2013-03-08 01:32:00,
2013-03-07 20:42:00,28.0,24.0,30.43,NW,305,0.0,0.0,84,0.00,,,0.07,,2013-03-08 01:42:00,
2013-03-07 20:52:00,28.0,24.0,30.43,NW,305,0.0,0.0,84,0.00,,,0.07,,2013-03-08 01:52:00,
2013-03-07 21:01:00,27.0,23.0,30.43,NW,305,0.0,0.0,86,0.00,,,0.07,,2013-03-08 02:01:00,
2013-03-07 21:11:00,27.0,23.0,30.43,NW,305,0.0,0.0,86,0.00,,,0.07,,2013-03-08 02:11:00,
2013-03-07 21:22:00,27.0,23.0,30.43,NW,305,0.0,0.0,86,0.00,,,0.07,,2013-03-08 02:22:00,
2013-03-07 21:32:00,26.0,22.0,30.43,NW,305,0.0,0.0,86,0.00,,,0.07,,2013-03-08 02:32:00,
2013-03-07 21:42:00,26.0,22.0,30.43,NW,305,0.0,0.0,86,0.00,,,0.07,,2013-03-08 02:42:00,
2013-03-07 21:53:00,26.0,22.0,30.43,NW,305,0.0,0.0,86,0.00,,,0.07,,2013-03-08 02:53:00,
2013-03-07 22:02:00,25.0,22.0,30.43,NW,305,0.0,0.0,88,0.00,,,0.07,,2013-03-08 03:02:00,
2013-03-07 22:12:00,25.0,22.0,30.43,NW,305,0.0,0.0,88,0.00,,,0.07,,2013-03-08 03:12:00,
2013-03-07 22:22:00,24.0,21.0,30.44,NW,305,0.0,1.0,89,0.00,,,0.07,,2013-03-08 03:22:00,
2013-03-07 22:32:00,23.0,21.0,30.44,NW,305,0.0,0.0,90,0.00,,,0.07,,2013-03-08 03:32:00,
2013-03-07 22:42:00,23.0,21.0,30.44,NW,305,0.0,0.0,90,0.00,,,0.07,,2013-03-08 03:42:00,
2013-03-07 22:53:00,23.0,21.0,30.44,NW,305,0.0,0.0,90,0.00,,,0.07,,2013-03-08 03:53:00,
2013-03-07 23:01:00,23.0,21.0,30.44,NW,305,0.0,0.0,91,0.00,,,0.07,,2013-03-08 04:01:00,
2013-03-07 23:11:00,23.0,21.0,30.44,NW,305,0.0,0.0,91,0.00,,,0.07,,2013-03-08 04:11:00,
2013-03-07 23:22:00,23.0,21.0,30.44,NW,305,0.0,0.0,90,0.00,,,0.07,,2013-03-08 04:22:00,
2013-03-07 23:32:00,22.0,20.0,30.44,NW,305,0.0,1.0,91,0.00,,,0.07,,2013-03-08 04:32:00,
2013-03-07 23:42:00,22.0,20.0,30.44,NW,305,0.0,1.0,91,0.00,,,0.07,,2013-03-08 04:42:00,
2013-03-07 23:52:00,22.0,20.0,30.45,NW,305,0.0,0.0,91,0.00,,,0.07,,2013-03-08 04:52:00,